Location: Wildcat Hills Observatory
(41.6350°N, 103.6812°W)
Time: 15:33:22
(UTC-06:00)

Cosmos 1634 Rocket - Visible Passes

Search period start: 22 July 2014 00:00
Search period end: 01 August 2014 00:00
Orbit: 960 x 993 km, 82.9° (Epoch: 22 July)

Date Brightness Start Highest point End Pass type
(mag) Time Alt. Az. Time Alt. Az. Time Alt. Az.
22 Jul 5.0 03:25:37 10° N 03:31:33 44° ENE 03:37:24 10° SSE visible
23 Jul 6.6 02:08:39 10° NE 02:10:50 12° ENE 02:13:01 10° E visible
23 Jul 4.1 03:51:03 10° N 03:57:18 80° E 04:03:28 10° S visible
24 Jul 6.1 02:32:21 10° NNE 02:37:03 22° ENE 02:41:41 10° ESE visible
24 Jul 4.1 04:16:48 10° NNW 04:22:52 57° W 04:28:52 10° S visible
25 Jul 5.2 02:57:16 10° N 03:03:02 39° ENE 03:08:43 10° SE visible
25 Jul 4.8 04:42:55 10° NNW 04:48:16 31° W 04:53:34 10° SSW visible
26 Jul 4.2 03:22:37 10° N 03:28:50 70° E 03:34:18 13° SSE visible
26 Jul 5.5 05:09:42 10° NW 05:13:29 17° W 05:17:15 10° WSW visible
27 Jul 6.2 02:04:12 10° NNE 02:08:28 19° ENE 02:12:42 10° ESE visible
27 Jul 4.0 03:48:17 10° NNW 03:54:26 66° W 03:59:02 18° S visible
28 Jul 5.3 02:28:57 10° N 02:34:31 34° ENE 02:39:12 14° SE visible
28 Jul 4.6 04:14:18 10° NNW 04:19:52 36° W 04:23:50 18° SW visible
29 Jul 4.4 02:54:12 10° N 03:00:21 60° E 03:04:03 24° SSE visible
29 Jul 5.3 04:40:52 10° NW 04:45:08 20° W 04:48:41 12° WSW visible
30 Jul 6.2 01:36:07 10° NNE 01:39:53 16° ENE 01:43:37 10° ESE visible
30 Jul 3.9 03:19:48 10° N 03:26:00 76° W 03:28:57 33° S visible
31 Jul 5.5 02:00:39 10° NNE 02:05:58 29° ENE 02:09:15 19° ESE visible
31 Jul 4.4 03:45:44 10° NNW 03:51:29 42° W 03:53:54 29° SW visible
